Wind_Speed
39 39 39 39 38 38 38 38 37 37 36 36 36 35 34 35 34 34 34 34 34 33 32 32 32 31 30 30 29 28 28 26 26 25 25 24 24 23 24 23 23 22 22
39 38 39 40 40 40 40 39 39 38 38 38 38 38 36 37 37 36 36 36 36 35 34 33 33 33 32 32 31 31 30 29 28 27 26 26 25 24 24 25 25 24 23
40 40 40 40 40 40 40 40 41 40 40 40 39 39 38 38 39 38 37 37 37 37 37 36 35 35 34 33 33 33 32 31 29 29 28 28 27 26 25 25 26 26 25
42 42 42 42 42 42 42 42 42 42 42 42 41 41 40 40 40 40 40 39 39 39 38 38 37 37 36 35 35 34 34 33 32 30 30 30 29 28 28 27 27 27 26
43 44 44 44 44 44 44 43 43 43 44 43 43 43 42 42 41 41 41 41 41 41 41 40 40 39 38 37 36 36 35 35 34 33 32 32 32 30 29 29 28 28 28
44 45 45 46 46 45 45 45 45 45 45 45 45 44 44 44 44 44 44 44 44 44 43 42 42 41 40 40 39 38 38 37 37 36 35 35 34 33 31 30 30 30 30
45 45 46 47 46 46 46 46 47 47 47 47 46 45 45 45 45 45 45 45 45 45 45 44 44 43 43 42 42 41 41 40 40 39 38 38 37 36 35 33 32 32 32
46 46 46 46 46 46 46 47 47 48 48 47 47 47 46 46 46 46 46 46 46 46 47 46 46 45 45 45 44 44 43 43 42 41 40 40 40 39 38 37 35 35 34
47 46 46 46 46 47 47 47 47 48 48 48 48 48 48 48 48 48 48 48 48 48 48 48 48 48 47 46 46 46 46 45 45 43 42 42 41 41 40 39 38 37 36
48 48 48 48 48 48 48 48 48 48 48 48 49 49 50 50 49 49 49 50 50 50 50 50 50 50 49 48 48 48 48 47 46 46 45 44 43 43 42 41 41 40 38
48 48 49 50 50 50 50 50 50 49 49 50 50 50 50 51 51 51 51 51 51 51 51 51 51 51 51 51 49 49 49 49 48 47 47 46 45 45 44 43 42 42 41
50 49 49 50 51 52 52 52 52 51 51 51 50 50 51 52 52 52 52 51 52 52 53 53 53 53 53 53 52 52 51 51 50 49 48 47 47 46 45 44 43 43 43
51 51 51 51 52 52 53 53 53 53 53 53 53 52 52 53 53 53 53 53 53 53 53 54 54 54 54 54 54 54 53 53 52 51 51 50 49 48 47 46 45 45 45
51 51 52 52 52 53 53 54 54 53 54 55 54 54 54 54 54 55 55 55 56 56 55 55 55 56 56 57 56 55 54 55 54 53 53 52 51 50 50 49 48 47 47
52 52 52 53 54 54 55 55 55 55 55 55 55 56 56 56 57 56 57 57 57 56 56 56 57 57 58 58 58 58 57 56 56 55 54 53 53 52 52 51 51 49 49
53 53 53 54 54 54 55 55 56 56 56 56 57 56 56 57 57 57 57 57 58 58 57 57 58 58 59 59 60 59 59 58 58 57 56 55 54 54 54 53 53 52 52
53 53 53 54 54 54 55 55 55 56 56 57 57 57 58 58 58 58 58 58 58 59 58 58 59 60 60 61 61 61 61 60 59 58 58 57 56 56 56 55 54 54 53
54 54 54 55 55 55 56 56 56 56 57 57 57 58 58 58 58 59 59 59 59 60 59 59 60 60 61 61 62 62 62 62 61 60 59 59 58 57 57 56 55 54 54
54 54 55 54 54 55 55 55 56 56 56 57 57 58 58 59 59 60 60 60 60 59 60 60 60 60 61 61 62 62 62 63 63 61 61 60 59 58 58 58 57 56 56
53 54 54 54 54 54 54 55 55 56 56 57 57 58 58 59 59 60 60 60 60 60 60 61 61 61 61 62 62 62 63 63 63 63 62 62 60 59 59 59 58 56 56
50 51 53 54 54 55 55 55 55 55 55 56 56 57 58 58 58 59 61 61 61 61 60 60 60 60 61 61 62 63 63 63 63 64 63 62 61 61 60 59 58 57 57
47 48 49 51 52 53 54 53 54 54 54 56 56 57 58 58 58 58 59 60 60 60 59 59 60 60 60 61 61 62 63 64 63 64 64 63 62 61 60 60 60 59 59
45 46 47 48 49 51 52 52 52 52 53 54 55 55 56 56 56 57 58 58 58 58 58 59 58 59 60 61 62 62 62 63 63 63 64 63 62 61 61 60 61 60 60
42 43 44 44 46 47 49 50 51 51 52 51 52 52 53 54 54 55 56 57 57 56 57 57 57 58 59 60 61 62 62 62 62 62 62 62 63 62 60 59 59 59 59
40 41 42 43 44 46 47 48 49 50 51 50 50 50 50 51 52 54 55 55 56 57 56 56 56 56 57 57 59 60 61 61 61 61 61 60 60 60 59 58 58 58 59
39 40 40 41 42 43 44 45 46 48 49 49 50 49 50 50 51 51 52 53 54 54 55 55 55 55 56 56 57 58 59 59 60 60 60 60 60 60 59 59 59 58 58
Wind_Direction
257 256 255 255 255 255 254 254 253 253 254 254 253 252 251 252 251 251 250 248 248 248 247 247 247 246 246 245 245 246 246 248 249 250 252 252 253 254 255 257 257 257 258
257 257 257 255 255 255 254 253 253 254 255 254 253 252 252 252 251 250 250 249 247 247 247 247 247 246 246 246 246 247 248 248 249 250 251 252 253 254 255 257 257 257 258
258 257 257 257 256 256 255 254 254 255 255 253 252 252 252 252 252 250 249 249 248 247 247 248 248 247 247 246 246 247 248 249 249 250 251 251 252 254 256 258 257 257 258
257 257 257 257 257 256 256 256 256 255 254 253 253 253 252 252 252 250 249 249 248 247 247 248 249 248 247 247 246 247 247 249 249 250 251 252 253 254 256 257 257 257 257
259 258 258 258 258 257 256 256 256 254 253 253 253 252 252 252 251 250 249 249 248 248 248 248 248 249 247 247 247 246 247 248 250 251 252 253 254 255 256 257 258 257 257
260 259 258 259 258 257 256 255 256 255 253 254 253 253 253 252 252 251 250 250 250 249 248 247 247 248 247 246 246 246 247 249 250 251 253 254 254 255 256 258 257 258 258
260 260 259 259 259 258 257 256 256 255 255 255 254 254 254 253 253 252 252 252 251 250 249 248 248 248 247 246 247 247 247 249 250 251 253 253 254 255 256 256 257 257 258
259 259 259 258 257 257 257 257 256 256 255 255 255 254 252 252 253 252 252 252 252 251 249 248 248 248 248 247 247 247 248 248 249 250 251 252 254 255 255 256 256 257 258
260 259 259 258 257 256 256 256 256 256 255 255 255 254 253 253 253 253 252 251 252 251 250 249 248 248 248 248 248 248 248 248 248 248 250 251 253 253 254 255 255 257 257
261 260 259 259 258 257 257 257 256 256 256 256 256 255 254 253 253 252 251 251 251 251 250 249 249 248 248 248 248 248 248 248 248 248 249 251 252 252 253 254 255 256 257
261 260 259 258 258 258 257 257 257 257 257 257 257 256 255 254 253 253 251 251 251 251 250 249 249 248 247 247 247 247 248 247 247 248 248 249 251 251 252 253 254 255 257
261 260 260 259 258 258 257 257 258 258 258 258 257 257 256 254 254 253 252 250 251 251 250 250 249 248 247 247 247 247 247 248 247 247 248 249 249 250 251 252 253 254 255
261 261 261 260 259 259 259 258 258 258 258 258 257 257 256 255 254 254 253 251 251 251 250 250 249 248 248 247 247 247 247 247 247 247 247 248 249 249 250 251 252 253 254
261 262 262 261 260 260 260 260 259 258 259 258 258 257 257 256 255 255 254 253 252 251 250 250 250 249 248 247 247 247 247 248 247 247 248 249 248 249 249 250 251 252 253
261 262 262 261 261 261 260 260 260 259 259 258 257 257 257 257 256 255 255 254 253 251 250 250 250 249 248 247 247 247 247 247 247 247 248 249 249 248 249 250 251 252 252
261 262 262 262 262 261 261 260 260 260 258 257 257 256 257 257 257 255 254 254 253 252 251 250 250 249 249 248 247 246 247 247 247 247 248 248 249 249 249 249 251 252 253
262 262 261 262 262 262 261 261 261 260 259 259 257 256 256 256 256 255 255 254 253 253 253 251 250 249 249 248 247 246 246 246 247 247 247 248 249 249 249 249 249 251 253
263 262 261 261 262 262 262 261 261 260 259 258 258 257 256 255 255 255 255 255 255 254 253 252 250 250 249 249 248 247 246 246 246 247 247 248 248 248 248 248 249 251 252
263 262 261 261 261 262 262 261 261 261 260 259 258 258 257 257 256 255 255 255 254 253 253 251 250 250 250 249 248 247 246 245 246 246 247 247 248 247 247 248 249 251 252
264 262 261 260 261 262 261 261 261 260 260 259 258 258 258 258 257 256 255 254 254 253 253 251 251 250 249 249 248 247 246 245 245 246 247 247 247 247 247 248 249 251 252
265 263 262 261 261 262 261 261 261 260 260 259 259 258 257 257 257 256 255 254 253 253 252 251 251 250 250 249 248 247 246 245 246 246 247 246 247 247 247 248 250 251 251
265 264 263 262 262 262 261 261 261 261 260 259 259 258 257 257 256 255 254 253 252 252 251 251 251 250 249 249 248 247 247 246 247 247 247 247 247 247 247 248 249 251 251
267 266 265 263 263 263 263 262 261 261 261 260 259 258 257 257 256 255 254 252 252 251 251 251 251 250 249 249 248 248 247 247 247 247 248 248 247 247 248 249 250 250 251
270 268 267 266 265 264 264 263 263 262 261 261 260 258 257 256 255 255 254 253 252 252 251 251 251 251 249 249 248 247 247 247 247 248 248 248 248 248 249 250 250 250 251
271 270 269 267 267 266 265 264 263 262 261 261 259 258 257 256 255 254 254 254 253 253 252 251 251 250 250 249 248 247 247 247 248 248 247 247 247 247 248 249 251 251 251
273 271 270 270 269 268 266 265 265 264 263 261 259 258 257 257 256 255 255 254 253 252 252 251 250 250 249 248 248 248 248 248 248 247 247 248 248 249 250 250 251 252 252
Height
5765 5766 5768 5769 5770 5771 5772 5773 5775 5777 5778 5780 5782 5783 5785 5786 5788 5790 5792 5794 5797 5799 5800 5802 5804 5806 5808 5810 5812 5814 5816 5817 5819 5820 5821 5823 5824 5824 5825 5826 5827 5828 5829
5755 5757 5758 5759 5761 5762 5763 5764 5766 5767 5769 5771 5773 5775 5776 5778 5779 5782 5784 5786 5788 5791 5793 5795 5797 5799 5801 5803 5806 5808 5810 5811 5813 5814 5816 5817 5818 5819 5820 5821 5822 5823 5824
5745 5747 5748 5749 5750 5752 5753 5754 5756 5758 5759 5761 5763 5765 5767 5769 5770 5772 5775 5777 5779 5782 5784 5786 5789 5791 5793 5796 5798 5801 5803 5805 5807 5808 5810 5811 5812 5813 5814 5815 5816 5817 5818
5735 5736 5738 5739 5740 5741 5743 5744 5746 5748 5749 5751 5753 5755 5756 5759 5761 5763 5765 5767 5770 5773 5775 5778 5780 5783 5785 5788 5790 5793 5795 5797 5800 5801 5803 5805 5806 5807 5808 5809 5810 5812 5813
5724 5725 5727 5728 5729 5730 5732 5733 5735 5737 5739 5740 5742 5744 5746 5748 5750 5753 5755 5757 5760 5763 5766 5768 5771 5774 5777 5779 5782 5785 5787 5790 5792 5794 5796 5798 5799 5800 5802 5803 5804 5806 5807
5713 5714 5715 5716 5718 5719 5721 5722 5724 5725 5727 5729 5731 5733 5735 5737 5739 5742 5744 5747 5750 5752 5755 5758 5761 5764 5768 5770 5773 5776 5779 5781 5784 5786 5788 5790 5792 5793 5795 5796 5798 5799 5800
5701 5702 5703 5705 5706 5708 5709 5710 5712 5714 5715 5717 5719 5722 5724 5726 5728 5730 5733 5735 5738 5741 5744 5747 5751 5754 5757 5760 5764 5767 5769 5772 5775 5777 5779 5781 5783 5785 5787 5789 5790 5792 5793
5689 5690 5691 5693 5694 5696 5697 5698 5700 5701 5703 5705 5707 5709 5712 5715 5717 5719 5721 5724 5727 5729 5732 5736 5739 5743 5746 5750 5753 5756 5759 5762 5765 5767 5770 5772 5775 5777 5779 5781 5782 5784 5785
5677 5678 5679 5680 5682 5684 5685 5687 5688 5690 5691 5693 5695 5697 5700 5702 5704 5707 5709 5712 5714 5717 5720 5723 5727 5731 5735 5738 5742 5745 5748 5751 5754 5757 5759 5762 5765 5767 5770 5772 5773 5775 5777
5664 5665 5666 5668 5669 5671 5673 5674 5676 5677 5679 5680 5682 5684 5687 5689 5691 5694 5696 5699 5701 5704 5707 5711 5714 5718 5722 5726 5729 5733 5736 5739 5743 5746 5749 5751 5754 5757 5760 5762 5764 5766 5768
5652 5652 5654 5655 5656 5658 5660 5661 5663 5665 5666 5668 5669 5671 5673 5675 5677 5680 5684 5686 5688 5691 5694 5698 5701 5705 5709 5713 5716 5720 5724 5727 5731 5734 5738 5741 5743 5746 5749 5752 5754 5756 5758
5639 5640 5641 5642 5643 5645 5647 5648 5650 5651 5653 5654 5656 5657 5659 5661 5664 5666 5670 5672 5675 5678 5680 5684 5688 5692 5695 5699 5703 5707 5711 5715 5719 5722 5726 5729 5732 5735 5738 5741 5744 5746 5748
5626 5627 5628 5629 5630 5631 5633 5634 5636 5638 5639 5641 5642 5644 5646 5648 5650 5652 5655 5658 5661 5664 5667 5670 5674 5678 5681 5685 5690 5693 5698 5702 5706 5710 5713 5717 5720 5724 5727 5730 5733 5735 5737
5613 5613 5614 5615 5616 5617 5618 5620 5621 5623 5625 5626 5628 5630 5632 5634 5636 5638 5641 5644 5647 5650 5653 5657 5660 5663 5667 5671 5676 5680 5684 5688 5692 5696 5700 5704 5708 5711 5715 5718 5721 5724 5726
5598 5599 5600 5601 5602 5603 5603 5605 5606 5608 5610 5611 5613 5615 5617 5619 5621 5623 5625 5628 5632 5635 5639 5642 5645 5648 5652 5656 5660 5665 5670 5674 5678 5683 5687 5691 5694 5698 5702 5705 5708 5711 5714
5584 5585 5585 5586 5587 5588 5589 5589 5591 5592 5594 5596 5598 5600 5602 5604 5605 5608 5610 5613 5616 5619 5623 5627 5630 5633 5636 5640 5645 5650 5655 5659 5664 5668 5673 5677 5680 5684 5688 5692 5695 5699 5701
5568 5569 5570 5571 5571 5572 5573 5574 5575 5576 5578 5580 5582 5584 5586 5588 5590 5592 5595 5597 5600 5603 5607 5611 5613 5616 5620 5624 5629 5634 5639 5644 5649 5653 5658 5662 5666 5670 5675 5678 5682 5685 5688
5553 5554 5554 5555 5556 5556 5557 5558 5559 5561 5562 5564 5566 5567 5569 5571 5574 5576 5578 5581 5584 5586 5590 5594 5597 5600 5604 5608 5613 5617 5623 5628 5633 5638 5642 5647 5651 5655 5660 5664 5668 5671 5675
5538 5538 5539 5539 5540 5541 5541 5542 5543 5544 5545 5547 5549 5551 5553 5555 5557 5559 5562 5564 5566 5569 5573 5576 5581 5584 5588 5592 5597 5601 5606 5612 5617 5622 5626 5631 5636 5640 5645 5649 5653 5657 5660
5522 5522 5522 5523 5524 5524 5525 5526 5527 5528 5529 5531 5532 5534 5536 5538 5540 5542 5544 5547 5549 5553 5556 5560 5564 5568 5572 5576 5580 5585 5590 5596 5601 5606 5611 5616 5620 5624 5629 5634 5639 5642 5645
5506 5506 5507 5507 5508 5508 5509 5509 5510 5511 5512 5514 5515 5517 5519 5520 5522 5524 5527 5530 5533 5536 5539 5543 5548 5552 5556 5560 5564 5568 5574 5579 5585 5590 5595 5600 5605 5609 5613 5618 5622 5626 5630
5491 5491 5491 5492 5492 5492 5492 5493 5493 5495 5496 5497 5499 5500 5502 5503 5505 5507 5510 5513 5516 5520 5523 5527 5531 5535 5540 5543 5547 5551 5557 5563 5570 5575 5578 5583 5588 5593 5597 5602 5606 5610 5614
5478 5477 5477 5477 5477 5477 5477 5477 5477 5478 5480 5481 5483 5484 5485 5487 5489 5491 5493 5496 5500 5503 5507 5511 5515 5519 5523 5527 5531 5536 5541 5546 5553 5557 5561 5568 5572 5577 5581 5585 5590 5594 5598
5464 5464 5463 5463 5463 5463 5462 5462 5462 5463 5465 5466 5467 5468 5470 5472 5473 5475 5478 5480 5483 5487 5491 5495 5500 5504 5506 5509 5514 5519 5524 5530 5536 5541 5545 5551 5555 5560 5564 5569 5573 5577 5581
5452 5451 5450 5450 5449 5449 5448 5448 5448 5449 5450 5451 5452 5453 5455 5456 5458 5460 5463 5465 5469 5472 5475 5478 5483 5486 5490 5493 5498 5503 5509 5514 5520 5525 5528 5534 5539 5543 5548 5553 5557 5561 5565
5440 5439 5438 5437 5436 5435 5434 5434 5433 5434 5435 5436 5437 5439 5440 5441 5443 5444 5447 5450 5453 5457 5459 5463 5467 5471 5474 5478 5482 5487 5493 5498 5504 5509 5513 5518 5523 5526 5532 5537 5540 5544 5548